Showing default

COSMOS 2213, 22184

Orbit data source: Space-Track

COSMOS 2213, 22184 is a payload satellite owned by VKS (CIS) in LEO that was launched on Tue, 20 Oct 1992 UTC via a TSIKLON-3 launch vehicle from the Plesetsk Missile And Space Complex (PKMTR). Payload-class satellites include a variety of spacecraft equipped with specific instruments for various scientific and technological missions. These include communications satellites like Starlink; space stations such as the ISS; scientific satellites like the Hubble; Earth observation satellites from companies like Planet Labs, Umbra, and HawkEye 360; GPS; miniature CubeSats for education and research; and military/defense satellites.

Loading next visibility...
Identifier
22184, 1992-068C
Orbit
LEO
Country
Flag of CISCIS
Related business
Manufacturer
NPO PM
Mission
Defense Communications
Bus & Motor
STRELA-3, Unknown motor
Mass
225 kg wet, 225 kg dry
Launch date (UTC)
1992-10-20 (33 years ago)
Launch vehicle
TSIKLON-3
Launch site
Plesetsk Missile And Space Complex (PKMTR)
Object type
Payload
Rocket body
Debris
Shape & HBR
Cyl, 0.8 m
Radar Cross Section
1.257 m², Large (>1 m²)

Expand to show TLE details & history
Last TLE update: 9 hours ago

TLE from 9 hours ago
0 COSMOS 2213
1 22184U 92068C   25354.82361208  .00000028  00000-0  96867-4 0  9991
2 22184  82.5999 100.5799 0003559 160.4708 323.2411 12.62606875528442
Epoch: 2025-12-20T19:46Z
TLE epoch observation values (Epoch: 2025-12-20T19:46:00.083Z)
Latitude
55.69474°
Longitude
-116.48417°
Altitude
1,419.184 km
Speed
7.157 km/s
True Right ascension
17h 58m 38s
True Declination
55° 32' 53"
Sunlit
Object was in daylight at epoch
Visualization orbit readout
Latitude
Unknown
Longitude
Unknown
Altitude
Unknown
Speed
Unknown
Apparent Right ascension
Unknown
Apparent Declination
Unknown
Sunlit
N/A
Visualization observer readout
Local Sidereal Time
03:25:28
Azimuth
Unknown
Elevation
Unknown
Doppler factor
Unknown
Orbital elements
Apogee altitude
1,412.294 km
Perigee altitude
1,406.751 km
Semi-major axis
7,787.659 km
Eccentricity
0.00036
Inclination
82.5999°
RAAN
100.5799°
Arg. of periapsis
160.4708°
True anomaly
323.21668°
Mean anomaly
323.2411°
Eccentric anomaly
323.22889°
Mean motion
3.15815 °/min
Orbital period
113.99 mins
BSTAR
0.000096867
Loading maneuver chart data...
Computing Atmospheric mass density...
Loading historical data...
Loading historical data...
Loading historical data...
Loading historical data...
Loading historical data...
Loading historical data...
Loading historical data...

Documentation

Showing up to 5 results
|